EW6584 Weather Reports


Display with metric or nautical units.
time (UTC)temp
F
wind
direction
speed
MPH
gust
MPH
rain 1hr
in
rain 24hr
in
rain mn
in
humidity
%
barometer
mb
20260507080053 52 184 1.0 3.0 0.00 0.00 0.00 89 1020.9
20260507074504 52 184 1.0 3.0 0.00 0.00 0.00 88 1020.9
20260507073020 52 199 2.0 4.0 0.00 0.00 0.00 88 1020.8
20260507071535 52 224 1.0 5.0 0.00 0.00 0.00 88 1020.8
20260507070039 52 215 1.0 7.0 0.00 0.00 0.00 89 1020.8
20260507064544 52 255 0.0 4.0 0.00 0.00 0.00 90 1020.8
20260507063056 52 237 1.0 8.0 0.00 0.00 0.00 89 1020.7
20260507061518 52 207 2.0 6.0 0.00 0.00 0.00 90 1020.8
20260507060027 52 206 3.0 7.0 0.00 0.00 0.00 90 1020.8
20260507054540 52 250 2.0 7.0 0.00 0.00 0.00 91 1020.8
20260507053045 52 248 0.0 4.0 0.00 0.00 0.00 90 1020.8
20260507051539 53 226 1.0 6.0 0.00 0.00 0.00 89 1021.0
20260507050049 53 249 4.0 7.0 0.00 0.00 0.00 87 1020.8
20260507044556 54 225 2.0 7.0 0.00 0.00 0.00 85 1020.8
20260507043015 54 250 4.0 10.0 0.00 0.00 0.00 84 1020.6
20260507041539 54 238 4.0 9.0 0.00 0.00 0.00 83 1020.7
20260507040045 55 262 1.0 7.0 0.00 0.00 0.00 82 1020.7
20260507034520 55 241 2.0 8.0 0.00 0.00 0.00 82 1020.5
20260507033028 55 232 2.0 7.0 0.00 0.00 0.00 82 1020.4
20260507031539 55 239 2.0 5.0 0.00 0.00 0.00 81 1020.3
20260507030059 55 235 3.0 8.0 0.00 0.00 0.00 81 1020.1
20260507024514 55 258 1.0 6.0 0.00 0.00 0.00 81 1020.1
20260507023047 56 254 1.0 8.0 0.00 0.00 0.00 80 1020.0
20260507021531 56 206 3.0 9.0 0.00 0.00 0.00 80 1020.0
20260507020014 56 289 2.0 10.0 0.00 0.00 0.00 79 1020.0
20260507014541 56 202 2.0 11.0 0.00 0.00 0.00 78 1019.9
20260507013023 57 241 4.0 10.0 0.00 0.00 0.00 78 1019.9
20260507011522 57 195 2.0 9.0 0.00 0.00 0.00 78 1019.9
20260507010031 57 206 4.0 7.0 0.00 0.00 0.00 78 1020.0
20260507004551 57 256 1.0 8.0 0.00 0.00 0.00 78 1020.0
20260507003011 57 228 3.0 12.0 0.00 0.00 0.00 78 1020.0
20260507001551 58 250 4.0 8.0 0.00 0.00 0.00 77 1020.0
20260507000033 57 212 3.0 8.0 0.00 0.00 0.00 77 1020.0
20260506234552 58 243 1.0 6.0 0.00 0.00 0.00 76 1020.1
20260506233100 58 256 3.0 10.0 0.00 0.00 0.00 75 1020.0
20260506231530 59 320 2.0 7.0 0.00 0.00 0.00 73 1020.1
20260506230056 58 254 3.0 11.0 0.00 0.00 0.00 75 1020.0
20260506224507 58 228 4.0 9.0 0.00 0.00 0.00 76 1020.2
20260506223052 58 239 4.0 8.0 0.00 0.00 0.00 76 1020.3
20260506221531 58 240 5.0 11.0 0.00 0.00 0.00 76 1020.4
20260506220011 57 287 7.0 12.0 0.00 0.00 0.00 78 1020.4
20260506214527 56 263 4.0 9.0 0.00 0.00 0.00 78 1020.5
20260506213052 57 245 3.0 7.0 0.00 0.00 0.00 79 1020.5
20260506211602 56 317 2.0 8.0 0.00 0.00 0.00 79 1020.5
20260506210034 56 219 3.0 10.0 0.00 0.00 0.00 79 1020.4
20260506204522 56 287 2.0 9.0 0.00 0.00 0.00 79 1020.4
20260506203038 56 303 2.0 9.0 0.00 0.00 0.00 79 1020.4
20260506201555 56 227 3.0 8.0 0.00 0.00 0.00 79 1020.3
20260506200058 56 260 3.0 8.0 0.00 0.00 0.00 79 1020.2
20260506194543 57 247 2.0 7.0 0.00 0.00 0.00 79 1020.1
20260506193022 56 225 5.0 11.0 0.00 0.00 0.00 80 1020.0
20260506191607 56 204 5.0 8.0 0.00 0.00 0.00 82 1019.9
20260506191509 56 200 5.0 8.0 0.00 0.00 0.00 83 1020.0
20260506190019 55 217 2.0 7.0 0.00 0.00 0.00 84 1020.0
20260506184530 54 256 2.0 5.0 0.00 0.00 0.00 85 1020.1
20260506183056 55 277 2.0 5.0 0.00 0.00 0.00 85 1020.2
20260506181548 55 239 0.0 7.0 0.00 0.00 0.00 87 1019.7
20260506180057 54 252 0.0 5.0 0.00 0.00 0.00 87 1019.8
20260506174516 54 299 2.0 7.0 0.00 0.00 0.00 88 1019.8
20260506173024 54 240 2.0 8.0 0.00 0.00 0.00 86 1019.8
20260506171513 54 237 1.0 8.0 0.00 0.00 0.00 86 1019.9
20260506170018 54 207 4.0 7.0 0.00 0.00 0.00 88 1019.7
20260506164534 54 240 3.0 8.0 0.00 0.00 0.00 88 1019.8
20260506163058 54 255 2.0 7.0 0.00 0.00 0.00 90 1019.4
20260506161535 53 215 3.0 6.0 0.00 0.00 0.00 91 1019.3
20260506160046 53 206 0.0 3.0 0.00 0.00 0.00 92 1019.5
20260506154605 53 245 0.0 5.0 0.00 0.00 0.00 93 1019.6
20260506154502 53 241 1.0 5.0 0.00 0.00 0.00 93 1019.6
20260506153040 53 210 2.0 4.0 0.00 0.00 0.00 93 1019.5
20260506151548 53 242 1.0 3.0 0.00 0.00 0.00 92 1019.3
20260506150010 53 242 1.0 5.0 0.00 0.00 0.00 91 1019.5
20260506144603 53 212 3.0 6.0 0.00 0.00 0.00 90 1019.4
20260506143042 53 216 4.0 7.0 0.00 0.00 0.00 91 1019.2
20260506141551 53 224 1.0 3.0 0.00 0.00 0.00 91 1019.2
20260506140104 53 231 2.0 7.0 0.00 0.00 0.00 91 1019.2
20260506140002 53 245 2.0 7.0 0.00 0.00 0.00 91 1019.2
20260506134512 53 221 3.0 6.0 0.00 0.00 0.00 91 1018.9
20260506133024 53 215 2.0 7.0 0.00 0.00 0.00 91 1019.0
20260506131535 53 222 1.0 4.0 0.00 0.00 0.00 91 1018.6
20260506130038 53 226 2.0 5.0 0.00 0.00 0.00 91 1018.6
20260506124553 53 196 2.0 4.0 0.00 0.00 0.00 92 1018.5
20260506123038 53 196 2.0 6.0 0.00 0.00 0.00 92 1018.4
20260506121525 53 197 2.0 5.0 0.00 0.00 0.00 91 1018.5
20260506120040 53 192 0.0 4.0 0.00 0.00 0.00 91 1018.3
20260506114539 53 191 2.0 5.0 0.00 0.00 0.00 91 1018.1
20260506113051 53 203 1.0 5.0 0.00 0.00 0.00 91 1018.2
20260506111600 53 195 2.0 4.0 0.00 0.00 0.00 90 1018.2
20260506111501 53 195 2.0 4.0 0.00 0.00 0.00 90 1018.3
20260506110040 53 244 1.0 3.0 0.00 0.00 0.00 90 1018.1
20260506104550 53 243 2.0 4.0 0.00 0.00 0.00 90 1018.0
20260506103124 53 228 0.0 4.0 0.00 0.00 0.00 89 1017.8
20260506103005 53 228 0.0 4.0 0.00 0.00 0.00 89 1017.8
20260506101514 53 228 2.0 4.0 0.00 0.00 0.00 89 1017.7
20260506100029 53 222 1.0 5.0 0.00 0.00 0.00 89 1017.6
20260506094512 53 204 0.0 6.0 0.00 0.00 0.00 89 1017.3
20260506093017 53 204 2.0 4.0 0.00 0.00 0.00 89 1017.3
20260506091531 53 210 2.0 6.0 0.00 0.00 0.00 89 1017.3
20260506090048 53 214 2.0 6.0 0.00 0.00 0.00 89 1017.3